Weather History for KAPY - April, 2014

Change the Weather History Date:

Monday, April 14, 2014

  Actual Average (KLRD) Record (KLRD)
Temperature  
Mean Temperature 70 °F 76 °F  
Max Temperature 80 °F 87 °F 103 °F (1972)
Min Temperature 59 °F 64 °F 40 °F (1913)
Degree Days  
Heating Degree Days 0 0  
Month to date heating degree days 12  
Since 1 July heating degree days 925  
Cooling Degree Days 4 11  
Month to date cooling degree days 139  
Year to date cooling degree days 397  
Growing Degree Days 20 (Base 50)    
Moisture  
Dew Point 56 °F    
Average Humidity 63    
Maximum Humidity 90    
Minimum Humidity 29    
Precipitation  
Precipitation 0.00 in 0.04 in 1.30 in (2015)
Month to date precipitation 0.52  
Year to date precipitation 3.48  
Sea Level Pressure  
Sea Level Pressure 29.84 in    
Wind  
Wind Speed 10 mph (NE)    
Max Wind Speed 30 mph    
Max Gust Speed 41 mph    
Visibility 8 miles    
Events      
T = Trace of Precipitation, MM = Missing Value Source: NWS Daily Summary

Daily Weather History Graph

Daily Weather History Graph

Search for Another Location

Airport or City:

Trip Planner

Search our weather history database for the weather conditions in past years. The results will help you decide how hot, cold, wet, or windy it might be!

Date:

Astronomy

Apr. 14, 2014 Rise Set
Actual Time 7:13 AM CDT 8:00 PM CDT
Civil Twilight 6:50 AM CDT 8:24 PM CDT
Nautical Twilight 6:22 AM CDT 8:52 PM CDT
Astronomical Twilight 5:53 AM CDT 9:21 PM CDT
Moon 7:42 PM CDT (4/14) 6:43 AM CDT (4/14)
Length of Visible Light 13h 34m
Length of Day
12h 46m
Full, 100% of the Moon is Illuminated
Apr 14
Full
Apr 15
Full
Apr 22
Last Quarter
Apr 29
New
May 6
First Quarter

Hourly Weather History & Observations

Time (CDT) Temp. Heat Index Dew Point Humidity Pressure Visibility Wind Dir Wind Speed Gust Speed Precip Events Conditions
12:15 AM 77.7 °F - 68.5 °F 73% 29.69 in 7.0 mi SE 6.9 mph - N/A   Clear
12:35 AM 77.0 °F - 68.7 °F 75% 29.68 in 7.0 mi SE 10.4 mph 16.1 mph N/A   Clear
12:55 AM 76.1 °F - 68.9 °F 78% 29.68 in 7.0 mi SE 8.1 mph - N/A   Clear
1:15 AM 75.2 °F - 68.9 °F 81% 29.68 in 7.0 mi SE 8.1 mph - N/A   Clear
1:35 AM 74.8 °F - 69.1 °F 82% 29.67 in 7.0 mi ESE 6.9 mph - N/A   Clear
1:55 AM 74.3 °F - 69.1 °F 84% 29.66 in 7.0 mi SE 8.1 mph - N/A   Clear
2:15 AM 74.3 °F - 69.3 °F 84% 29.65 in 7.0 mi SE 6.9 mph - N/A   Clear
2:35 AM 73.9 °F - 69.8 °F 87% 29.65 in 7.0 mi SE 8.1 mph - N/A   Clear
2:55 AM 73.8 °F - 70.2 °F 88% 29.64 in 7.0 mi SE 6.9 mph - N/A   Clear
3:15 AM 73.6 °F - 70.2 °F 89% 29.64 in 7.0 mi SSE 8.1 mph - N/A   Clear
3:35 AM 73.6 °F - 70.5 °F 90% 29.64 in 7.0 mi SSE 6.9 mph - N/A   Scattered Clouds
3:55 AM 73.8 °F - 70.5 °F 90% 29.63 in 7.0 mi SSE 8.1 mph 16.1 mph N/A   Mostly Cloudy
4:15 AM 74.3 °F - 69.8 °F 86% 29.62 in 7.0 mi SSE 12.7 mph 19.6 mph N/A   Overcast
4:35 AM 74.7 °F - 69.4 °F 84% 29.62 in 7.0 mi SE 9.2 mph - N/A   Overcast
4:55 AM 74.7 °F - 69.1 °F 83% 29.63 in 7.0 mi SSE 9.2 mph - N/A   Overcast
5:15 AM 74.7 °F - 68.9 °F 82% 29.63 in 7.0 mi SE 10.4 mph - N/A   Overcast
5:35 AM 74.7 °F - 68.9 °F 82% 29.63 in 7.0 mi SSE 10.4 mph - N/A   Overcast
5:55 AM 74.7 °F - 68.9 °F 82% 29.63 in 7.0 mi SSE 8.1 mph - N/A   Overcast
6:15 AM 74.7 °F - 68.9 °F 82% 29.64 in 7.0 mi SSE 5.8 mph - N/A   Overcast
6:35 AM 74.7 °F - 68.9 °F 82% 29.64 in 7.0 mi SE 5.8 mph - N/A   Overcast
6:55 AM 74.8 °F - 68.7 °F 81% 29.65 in 7.0 mi SE 5.8 mph - N/A   Overcast
7:15 AM 74.8 °F - 68.5 °F 81% 29.66 in 7.0 mi SE 5.8 mph - N/A   Overcast
7:35 AM 75.0 °F - 68.7 °F 81% 29.66 in 5.0 mi SE 3.5 mph - N/A   Haze
7:55 AM 75.2 °F - 68.5 °F 80% 29.68 in 5.0 mi SSE 3.5 mph - N/A   Haze
8:15 AM 75.4 °F - 68.4 °F 79% 29.69 in 7.0 mi SE 4.6 mph - N/A   Overcast
8:35 AM 75.7 °F - 68.4 °F 78% 29.70 in 7.0 mi SE 4.6 mph - N/A   Overcast
8:55 AM 76.1 °F - 68.4 °F 77% 29.70 in 7.0 mi SE 5.8 mph - N/A   Overcast
9:15 AM 76.3 °F - 68.2 °F 76% 29.71 in 7.0 mi SE 4.6 mph - N/A   Overcast
9:35 AM 76.8 °F - 68.2 °F 75% 29.72 in 7.0 mi ESE 3.5 mph - N/A   Overcast
9:55 AM 76.6 °F - 68.0 °F 75% 29.73 in 7.0 mi ESE 3.5 mph - N/A   Overcast
10:15 AM 77.2 °F - 68.2 °F 74% 29.74 in 7.0 mi SSE 3.5 mph - N/A   Overcast
10:35 AM 77.2 °F - 68.0 °F 73% 29.75 in 7.0 mi Calm Calm - N/A   Overcast
10:50 AM 77.4 °F - 68.0 °F 73% 29.76 in 7.0 mi Calm Calm - N/A   Overcast
11:15 AM 77.9 °F - 68.0 °F 71% 29.79 in 7.0 mi NW 8.1 mph - N/A   Overcast
11:35 AM 78.8 °F - 68.2 °F 70% 29.80 in 7.0 mi NW 10.4 mph - N/A   Overcast
11:55 AM 80.1 °F 82.7 °F 68.0 °F 67% 29.80 in 7.0 mi NW 11.5 mph - N/A   Overcast
12:15 PM 65.5 °F - 55.8 °F 71% 29.85 in 5.0 mi NNW 27.6 mph 38.0 mph N/A   Haze
12:35 PM 64.9 °F - 56.3 °F 74% 29.87 in 7.0 mi NNW 29.9 mph 35.7 mph N/A   Overcast
12:55 PM 64.8 °F - 55.4 °F 72% 29.89 in 10.0 mi North 25.3 mph 35.7 mph N/A   Overcast
1:15 PM 62.1 °F - 52.7 °F 71% 29.91 in 10.0 mi North 28.8 mph 40.3 mph N/A   Overcast
1:35 PM 61.3 °F - 50.4 °F 67% 29.93 in 10.0 mi North 26.5 mph 41.4 mph N/A   Overcast
1:55 PM 60.8 °F - 49.1 °F 65% 29.94 in 10.0 mi North 25.3 mph 40.3 mph N/A   Overcast
2:15 PM 61.0 °F - 49.6 °F 66% 29.94 in 10.0 mi North 23.0 mph 33.4 mph N/A   Overcast
2:35 PM 59.5 °F - 49.5 °F 69% 29.95 in 10.0 mi North 19.6 mph 29.9 mph N/A   Overcast
3:15 PM 59.5 °F - 47.3 °F 64% 29.97 in 10.0 mi NNW 21.9 mph 32.2 mph N/A   Overcast
3:35 PM 60.8 °F - 46.4 °F 59% 29.97 in 10.0 mi North 19.6 mph 29.9 mph N/A   Overcast
3:55 PM 63.5 °F - 44.8 °F 51% 29.97 in 10.0 mi North 17.3 mph 28.8 mph N/A   Overcast
4:15 PM 63.9 °F - 43.3 °F 47% 29.96 in 10.0 mi North 17.3 mph 27.6 mph N/A   Overcast
4:35 PM 65.5 °F - 42.8 °F 44% 29.96 in 10.0 mi North 17.3 mph 26.5 mph N/A   Overcast
4:55 PM 67.3 °F - 42.1 °F 40% 29.95 in 10.0 mi NNW 18.4 mph 24.2 mph N/A   Overcast
5:15 PM 69.6 °F - 41.2 °F 36% 29.94 in 10.0 mi North 17.3 mph 23.0 mph N/A   Mostly Cloudy
5:35 PM 69.3 °F - 40.1 °F 35% 29.95 in 10.0 mi NNW 18.4 mph 28.8 mph N/A   Scattered Clouds
5:55 PM 69.8 °F - 41.2 °F 35% 29.95 in 10.0 mi North 16.1 mph 23.0 mph N/A   Scattered Clouds
6:15 PM 70.7 °F - 41.9 °F 35% 29.95 in 10.0 mi North 17.3 mph 24.2 mph N/A   Clear
6:35 PM 72.5 °F - 41.5 °F 33% 29.96 in 10.0 mi North 15.0 mph 21.9 mph N/A   Clear
6:55 PM 71.6 °F - 41.5 °F 34% 29.97 in 10.0 mi North 12.7 mph 24.2 mph N/A   Clear
7:15 PM 71.8 °F - 38.1 °F 29% 29.99 in 10.0 mi North 13.8 mph 24.2 mph N/A   Clear
7:35 PM 70.7 °F - 37.6 °F 30% 30.01 in 10.0 mi North 10.4 mph 21.9 mph N/A   Clear
7:55 PM 69.8 °F - 36.9 °F 30% 30.02 in 10.0 mi North 15.0 mph 19.6 mph N/A   Clear
8:15 PM 69.3 °F - 35.8 °F 29% 30.04 in 10.0 mi North 16.1 mph 23.0 mph N/A   Clear
8:35 PM 68.9 °F - 35.6 °F 29% 30.06 in 10.0 mi North 12.7 mph 16.1 mph N/A   Clear
8:55 PM 68.0 °F - 35.6 °F 30% 30.08 in 10.0 mi North 10.4 mph - N/A   Clear
9:15 PM 66.6 °F - 35.6 °F 32% 30.10 in 10.0 mi North 6.9 mph - N/A   Clear
9:35 PM 64.9 °F - 36.0 °F 34% 30.12 in 10.0 mi NNE 5.8 mph - N/A   Clear
9:55 PM 64.2 °F - 36.0 °F 35% 30.15 in 10.0 mi North 10.4 mph - N/A   Clear
10:15 PM 65.3 °F - 35.1 °F 33% 30.16 in 10.0 mi North 9.2 mph 18.4 mph N/A   Clear
10:35 PM 63.9 °F - 35.4 °F 35% 30.18 in 10.0 mi North 10.4 mph 16.1 mph N/A   Clear
10:55 PM 63.5 °F - 34.7 °F 34% 30.20 in 10.0 mi North 10.4 mph - N/A   Clear
11:15 PM 62.6 °F - 34.0 °F 34% 30.20 in 10.0 mi North 9.2 mph - N/A   Clear
11:35 PM 61.9 °F - 33.4 °F 34% 30.20 in 10.0 mi North 9.2 mph 17.3 mph N/A   Clear